Location: Unspecified
(50.7693°N, 0.0000°E)
Time: 18:06:36
(UTC+00:00)

Vanguard 1 Rocket - Pass Details

Date: 23 June 2019
Orbit: 652 x 4224 km, 34.3° (Epoch: 19 August)

Event Time Altitude Azimuth Distance (km) Brightness Sun altitude
Rises 16:15:19 0° 222° (SW) 7,986 12.8 34.7°
Reaches altitude 10° 16:22:28 10° 214° (SSW) 6,480 12.3 33.6°
Maximum altitude 16:36:46 28° 165° (SSE) 3,806 10.6 31.3°
Drops below altitude 10° 16:45:42 10° 112° (ESE) 3,984 10.3 29.9°
Sets 16:48:47 0° 100° (E) 4,565 10.4 29.4°
